Regional Weather Roundup
Issued by NWS Cleveland, OH

Home | Current Version | Previous Version | Text Only | Print | Product List | Glossary Off
Versions: 1 2 3 4 5 6 7 8 9 10 11 12 13 14 15 16 17 18 19 20 21 22 23 24 25 26 27 28 29 30 31 32 33 34 35 36 37 38 39 40 41 42 43 44 45 46 47 48 49 50

000
ASUS41 KCLE 070510
RWRCLE
OHIO REGIONAL WEATHER ROUNDUP
NATIONAL WEATHER SERVICE CLEVELAND, OH
100 AM EDT THU MAY 07 2015

NOTE: "FAIR" INDICATES FEW OR NO CLOUDS BELOW 12,000 FEET WITH NO
SIGNIFICANT WEATHER AND/OR OBSTRUCTIONS TO VISIBILITY.

OHZ001>008-015>018-024>027-034-035-043-044-070600-
   NORTHWEST OHIO

CITY           SKY/WX    TMP DP  RH WIND       PRES   REMARKS
DEFIANCE       CLEAR     60  55  83 NE6       30.16S
FINDLAY        CLEAR     60  55  83 E3        30.15S
TOLEDO EXPRESS CLEAR     54  52  93 CALM      30.17S
TOLEDO EXEC    CLEAR     56  52  86 NE5       30.18S
LIMA           CLEAR     62  57  83 E7        30.15S
$$

OHZ009>014-019>023-028>033-038-089-070600-
   NORTHEAST OHIO

CITY           SKY/WX    TMP DP  RH WIND       PRES   REMARKS
CLE-HOPKINS    PTCLDY    59  54  83 CALM      30.19S
CLE-LAKEFRONT  CLEAR     52  50  93 CALM      30.18S FOG
CUY CO. ARPT   NOT AVBL
LORAIN-ELYRIA  CLEAR     53  53 100 CALM      30.18S FOG
ASHTABULA      PTCLDY    53  52  96 CALM      30.19S FOG
AKRON-CANTON   CLEAR     61  55  81 NE6       30.17F
WOOSTER        CLEAR     57  54  89 CALM      30.17F
MANSFIELD      CLEAR     63  57  81 SE5       30.18S
YOUNGSTOWN     PTCLDY    56  54  93 E5        30.18S
$$

OHZ042-051>053-060>062-070>072-077>081-070600-
  SOUTHWEST OHIO

CITY           SKY/WX    TMP DP  RH WIND       PRES   REMARKS
CINC-COVINGTON PTCLDY    66  54  65 CALM      30.12F
CINC-LUNKEN    CLEAR     59  57  93 CALM      30.13S
HAMILTON       CLEAR     60  56  86 CALM      30.13S
DAYTON         CLEAR     68  59  73 E5        30.15S
WRIGHT-PAT AFB CLEAR     62  59  89 CALM      30.14S
DAYTON GENERAL CLEAR     67  55  65 E6        30.13S
WILMINGTON     CLEAR     66  52  60 E7        30.14S
$$

OHZ036-037-039>041-045>050-054>059-063>069-073>076-082>088-070600-
  CENTRAL AND SOUTHEAST OHIO

CITY           SKY/WX    TMP DP  RH WIND       PRES   REMARKS
COLUMBUS       CLEAR     68  56  65 CALM      30.14S
OSU AIRPORT    CLEAR     66  57  72 E6        30.15S
BOLTON FIELD   CLEAR     69  57  64 CALM      30.15S
RICKENBACK AFB CLEAR     66  55  68 N6        30.14S
NEWARK         CLEAR     60  57  89 CALM      30.15S
MARION         CLEAR     58  56  93 E3        30.16S
LANCASTER      CLEAR     61  56  83 CALM      30.15S
ZANESVILLE     CLEAR     66  56  70 CALM      30.15S
NEW PHILLY     CLEAR     63  58  83 CALM      30.17S
$$


USA.gov is the U.S. government's official web portal to all federal, state and local government web resources and services.